Location: Ch�risy
(50.2331°N, 2.9131°E)
Time: 02:13:09
(UTC+00:00)

SL-14 R/B - Pass Details

Date: 17 January 2021
Orbit: 520 x 553 km, 82.4° (Epoch: 28 February)

Event Time Altitude Azimuth Distance (km) Brightness Sun altitude
Rises 17:25:29 0° 177° (S) 2,638 7.0 -10.6°
Reaches altitude 10° 17:27:38 10° 172° (S) 1,758 6.0 -10.9°
Maximum altitude 17:31:24 54° 96° (E) 650 3.3 -11.5°
Drops below altitude 10° 17:35:13 10° 19° (NNE) 1,789 5.6 -12.1°
Enters shadow 17:36:39 - 16° (NNE) 2,368 6.2 -12.3°
